| time (UTC) | temp F | wind direction | speed MPH | gust MPH | rain 1hr in | rain 24hr in | rain mn in | humidity % | barometer mb |
| 20260905151554 | 65 | 49 | 2.0 | 12.0 | 0.00 | 0.03 | 0.00 | 83 | 1011.2 |
| 20260905144600 | 65 | 325 | 4.0 | 11.0 | 0.00 | 0.03 | 0.00 | 83 | 1011.0 |
| 20260905143052 | 65 | 346 | 5.0 | 12.0 | 0.00 | 0.03 | 0.00 | 77 | 1010.9 |
| 20260905141558 | 66 | 41 | 6.0 | 13.0 | 0.00 | 0.03 | 0.00 | 75 | 1010.7 |
| 20260905140100 | 66 | 19 | 2.0 | 10.0 | 0.00 | 0.03 | 0.00 | 75 | 1010.5 |
| 20260905134601 | 66 | 13 | 1.0 | 13.0 | 0.00 | 0.03 | 0.00 | 76 | 1010.3 |
| 20260905133057 | 66 | 24 | 1.0 | 10.0 | 0.00 | 0.03 | 0.00 | 78 | 1010.2 |
| 20260905131550 | 66 | 63 | 3.0 | 9.0 | 0.00 | 0.03 | 0.00 | 78 | 1010.2 |
| 20260905130059 | 66 | 0 | 2.0 | 10.0 | 0.00 | 0.03 | 0.00 | 80 | 1010.0 |
| 20260905124558 | 65 | 0 | 2.0 | 8.0 | 0.00 | 0.03 | 0.00 | 82 | 1010.0 |
| 20260905123053 | 65 | 21 | 2.0 | 7.0 | 0.00 | 0.03 | 0.00 | 84 | 1009.9 |
| 20260905121548 | 64 | 0 | 0.0 | 4.0 | 0.00 | 0.03 | 0.00 | 86 | 1009.8 |
| 20260905120100 | 65 | 0 | 0.0 | 7.0 | 0.00 | 0.03 | 0.00 | 88 | 1009.8 |
| 20260905114558 | 63 | 0 | 0.0 | 3.0 | 0.00 | 0.03 | 0.00 | 94 | 1009.8 |
| 20260905113053 | 62 | 0 | 0.0 | 2.0 | 0.00 | 0.03 | 0.00 | 93 | 1009.8 |
| 20260905111548 | 62 | 0 | 0.0 | 2.0 | 0.00 | 0.03 | 0.00 | 94 | 1009.5 |
| 20260905110104 | 61 | 0 | 0.0 | 2.0 | 0.00 | 0.03 | 0.00 | 93 | 1009.4 |
| 20260905104556 | 61 | 0 | 0.0 | 4.0 | 0.00 | 0.03 | 0.00 | 93 | 1009.3 |
| 20260905103059 | 61 | 306 | 0.0 | 3.0 | 0.00 | 0.03 | 0.00 | 93 | 1009.0 |
| 20260905101606 | 61 | 0 | 0.0 | 3.0 | 0.00 | 0.03 | 0.00 | 94 | 1009.0 |
| 20260905100050 | 61 | 0 | 0.0 | 1.0 | 0.00 | 0.03 | 0.00 | 94 | 1008.9 |
| 20260905094559 | 61 | 0 | 0.0 | 3.0 | 0.00 | 0.03 | 0.00 | 94 | 1008.6 |
| 20260905093123 | 61 | 0 | 0.0 | 0.0 | 0.00 | 0.03 | 0.00 | 93 | 1008.6 |
| 20260905091604 | 61 | 0 | 0.0 | 1.0 | 0.00 | 0.03 | 0.00 | 91 | 1008.4 |
| 20260905090051 | 61 | 0 | 0.0 | 1.0 | 0.00 | 0.03 | 0.00 | 87 | 1008.4 |
| 20260905084548 | 61 | 0 | 0.0 | 0.0 | 0.00 | 0.03 | 0.00 | 85 | 1008.5 |
| 20260905083108 | 62 | 0 | 0.0 | 1.0 | 0.00 | 0.03 | 0.00 | 83 | 1008.3 |
| 20260905081558 | 62 | 0 | 0.0 | 3.0 | 0.00 | 0.03 | 0.00 | 82 | 1008.4 |
| 20260905074549 | 63 | 311 | 1.0 | 5.0 | 0.00 | 0.03 | 0.00 | 81 | 1008.4 |
| 20260905073100 | 62 | 311 | 1.0 | 5.0 | 0.00 | 0.03 | 0.00 | 81 | 1008.4 |
| 20260905071556 | 62 | 0 | 1.0 | 4.0 | 0.00 | 0.03 | 0.00 | 81 | 1008.5 |
| 20260905070111 | 63 | 345 | 1.0 | 4.0 | 0.00 | 0.03 | 0.00 | 80 | 1008.5 |
| 20260905064549 | 63 | 0 | 0.0 | 3.0 | 0.00 | 0.03 | 0.00 | 79 | 1008.5 |
| 20260905063059 | 63 | 0 | 0.0 | 5.0 | 0.00 | 0.03 | 0.00 | 78 | 1008.5 |
| 20260905061607 | 64 | 0 | 1.0 | 4.0 | 0.00 | 0.03 | 0.00 | 77 | 1008.6 |
| 20260905060053 | 64 | 269 | 3.0 | 6.0 | 0.00 | 0.03 | 0.00 | 76 | 1008.6 |
| 20260905054555 | 65 | 315 | 2.0 | 5.0 | 0.00 | 0.03 | 0.00 | 75 | 1008.7 |
| 20260905053059 | 65 | 296 | 3.0 | 8.0 | 0.00 | 0.03 | 0.00 | 74 | 1008.4 |
| 20260905051558 | 64 | 307 | 2.0 | 7.0 | 0.00 | 0.03 | 0.00 | 76 | 1008.6 |
| 20260905050055 | 64 | 325 | 1.0 | 5.0 | 0.00 | 0.03 | 0.00 | 76 | 1008.7 |
| 20260905044549 | 64 | 292 | 2.0 | 4.0 | 0.00 | 0.03 | 0.00 | 76 | 1008.8 |
| 20260905043058 | 64 | 0 | 1.0 | 6.0 | 0.00 | 0.03 | 0.00 | 74 | 1008.8 |
| 20260905041600 | 64 | 327 | 3.0 | 7.0 | 0.00 | 0.03 | 0.00 | 75 | 1008.7 |
| 20260905040057 | 65 | 314 | 2.0 | 6.0 | 0.00 | 0.03 | 0.00 | 73 | 1008.9 |
| 20260905034551 | 66 | 309 | 3.0 | 8.0 | 0.00 | 0.03 | 0.03 | 71 | 1009.0 |
| 20260905033105 | 65 | 290 | 3.0 | 7.0 | 0.00 | 0.03 | 0.03 | 73 | 1009.0 |
| 20260905031605 | 65 | 301 | 2.0 | 5.0 | 0.00 | 0.03 | 0.03 | 75 | 1008.9 |
| 20260905030056 | 65 | 300 | 1.0 | 4.0 | 0.00 | 0.03 | 0.03 | 73 | 1009.2 |
| 20260905024604 | 66 | 306 | 1.0 | 5.0 | 0.00 | 0.03 | 0.03 | 70 | 1009.1 |
| 20260905023058 | 67 | 360 | 2.0 | 7.0 | 0.00 | 0.03 | 0.03 | 68 | 1009.2 |
| 20260905021549 | 65 | 327 | 3.0 | 7.0 | 0.00 | 0.03 | 0.03 | 72 | 1009.2 |
| 20260905020059 | 64 | 0 | 0.0 | 1.0 | 0.00 | 0.03 | 0.03 | 79 | 1009.4 |
| 20260905014557 | 65 | 0 | 0.0 | 2.0 | 0.00 | 0.03 | 0.03 | 79 | 1009.4 |
| 20260905013053 | 66 | 184 | 0.0 | 2.0 | 0.00 | 0.03 | 0.03 | 73 | 1009.3 |
| 20260905011549 | 67 | 0 | 0.0 | 5.0 | 0.00 | 0.03 | 0.03 | 67 | 1009.5 |
| 20260905010058 | 66 | 269 | 2.0 | 6.0 | 0.00 | 0.03 | 0.03 | 72 | 1009.3 |
| 20260905004616 | 67 | 263 | 0.0 | 3.0 | 0.00 | 0.03 | 0.03 | 69 | 1009.4 |
| 20260905003055 | 68 | 0 | 0.0 | 2.0 | 0.00 | 0.03 | 0.03 | 66 | 1009.4 |
| 20260905001558 | 68 | 0 | 0.0 | 3.0 | 0.00 | 0.03 | 0.03 | 65 | 1009.5 |
| 20260905000055 | 69 | 306 | 1.0 | 3.0 | 0.00 | 0.03 | 0.03 | 63 | 1009.3 |
| 20260904234550 | 69 | 322 | 2.0 | 6.0 | 0.00 | 0.03 | 0.03 | 62 | 1009.2 |
| 20260904233047 | 70 | 316 | 3.0 | 7.0 | 0.00 | 0.03 | 0.03 | 62 | 1009.1 |
| 20260904231548 | 70 | 323 | 1.0 | 4.0 | 0.00 | 0.03 | 0.03 | 63 | 1009.2 |
| 20260904230128 | 70 | 316 | 1.0 | 4.0 | 0.00 | 0.03 | 0.03 | 64 | 1009.1 |
| 20260904224551 | 71 | 311 | 0.0 | 2.0 | 0.00 | 0.03 | 0.03 | 62 | 1009.0 |
| 20260904223052 | 72 | 0 | 0.0 | 3.0 | 0.00 | 0.03 | 0.03 | 61 | 1008.8 |
| 20260904221601 | 73 | 309 | 1.0 | 7.0 | 0.00 | 0.03 | 0.03 | 58 | 1008.9 |
| 20260904220101 | 73 | 321 | 2.0 | 8.0 | 0.00 | 0.03 | 0.03 | 58 | 1009.0 |
| 20260904214550 | 75 | 335 | 5.0 | 13.0 | 0.00 | 0.03 | 0.03 | 55 | 1008.8 |
| 20260904213051 | 75 | 306 | 5.0 | 10.0 | 0.00 | 0.03 | 0.03 | 56 | 1008.7 |
| 20260904211556 | 74 | 329 | 4.0 | 8.0 | 0.00 | 0.03 | 0.03 | 58 | 1008.7 |
| 20260904210048 | 74 | 298 | 3.0 | 11.0 | 0.00 | 0.03 | 0.03 | 59 | 1008.7 |
| 20260904204559 | 74 | 342 | 6.0 | 11.0 | 0.00 | 0.03 | 0.03 | 57 | 1008.6 |
| 20260904203056 | 74 | 310 | 5.0 | 13.0 | 0.00 | 0.03 | 0.03 | 58 | 1008.6 |
| 20260904201552 | 74 | 341 | 5.0 | 11.0 | 0.00 | 0.03 | 0.03 | 60 | 1008.6 |
| 20260904200048 | 75 | 314 | 3.0 | 9.0 | 0.00 | 0.03 | 0.03 | 60 | 1008.5 |
| 20260904194607 | 76 | 304 | 1.0 | 8.0 | 0.00 | 0.03 | 0.03 | 58 | 1008.4 |
| 20260904193050 | 77 | 321 | 3.0 | 10.0 | 0.00 | 0.03 | 0.03 | 58 | 1008.4 |
| 20260904191546 | 78 | 319 | 3.0 | 9.0 | 0.00 | 0.03 | 0.03 | 58 | 1008.3 |
| 20260904190059 | 79 | 306 | 6.0 | 11.0 | 0.00 | 0.03 | 0.03 | 55 | 1008.5 |
| 20260904184548 | 78 | 291 | 3.0 | 8.0 | 0.00 | 0.03 | 0.03 | 58 | 1008.8 |
| 20260904183114 | 77 | 0 | 3.0 | 5.0 | 0.00 | 0.03 | 0.03 | 66 | 1008.7 |
| 20260904181559 | 75 | 19 | 1.0 | 4.0 | 0.01 | 0.03 | 0.03 | 75 | 1008.8 |
| 20260904180056 | 73 | 346 | 1.0 | 5.0 | 0.03 | 0.03 | 0.03 | 77 | 1009.0 |
| 20260904174548 | 73 | 341 | 2.0 | 5.0 | 0.03 | 0.03 | 0.03 | 78 | 1009.0 |
| 20260904173059 | 72 | 0 | 0.0 | 8.0 | 0.03 | 0.03 | 0.03 | 79 | 1008.9 |
| 20260904171556 | 74 | 284 | 5.0 | 9.0 | 0.02 | 0.02 | 0.02 | 71 | 1009.2 |
| 20260904170053 | 76 | 350 | 4.0 | 10.0 | 0.00 | 0.00 | 0.00 | 57 | 1009.0 |
| 20260904164603 | 78 | 355 | 2.0 | 12.0 | 0.00 | 0.00 | 0.00 | 53 | 1009.0 |
| 20260904163106 | 78 | 307 | 3.0 | 7.0 | 0.00 | 0.00 | 0.00 | 56 | 1009.0 |
| 20260904161555 | 77 | 331 | 2.0 | 9.0 | 0.00 | 0.00 | 0.00 | 61 | 1009.3 |
| 20260904160105 | 78 | 315 | 1.0 | 6.0 | 0.00 | 0.00 | 0.00 | 59 | 1009.4 |
| 20260904154601 | 79 | 298 | 3.0 | 7.0 | 0.00 | 0.01 | 0.00 | 59 | 1009.4 |
| 20260904153107 | 79 | 211 | 1.0 | 7.0 | 0.00 | 0.01 | 0.00 | 63 | 1009.4 |